[[{"header":{"parameterUnit":"m.s-1","parameterCategory":1,"la1":30.2991,"la2":30.254,"lo1":-89.0895,"lo2":-89.0444,"dy":0.0017,"dx":0.0017,"nx":28,"ny":28,"refTime":"2025-03-21T21:00:00:Z","depth":0,"parameterNumber":2,"parameterNumberName":"U-component_of_WINDS"},"data":[0,0,0,0,0,0,0,0,0,0,0,0,0,0,0,0,0,0,0,0,0,0,0,0,0,0,0,0,0,0,0,0,0,0,0,0,0,0,0,0,0,0,0,0,0,0,0,0,0,0,0,0,0,0,0,0,0,0,0.9795,0.9796,0,0.9835,0.9835,0.9836,0.9827,0.9827,0.9826,0.9825,0.9865,0.9866,0.9868,0,0,0,0,0,0,0,0,0,0,0,0,0,0.971,0.9711,0.9795,0.9796,0.9796,0.9835,0.9835,0.9836,0.9827,0.9827,0.9826,0.9825,0.9864,0.9866,0.9868,0,0,0,0,0,0,0,0,0,0,0,0,0,0.9748,0.9712,0.9795,0.9797,0.9797,0.9835,0.9835,0.9836,0.9828,0.9826,0.9825,0.9824,0.9863,0.9866,0.9868,0.9906,0,0,0.9876,0.9878,0,0,0,0,0,0,0,0,0.9746,0.9751,0.9796,0.9797,0.9797,0.9825,0.982,0.986,0.9828,0.9816,0.9825,0.9824,0.9852,0.9856,0.9866,0.9908,0.991,0.9877,0.9878,0.9879,0.988,0,0,0,0,0,0,0,0.9743,0.9749,0.9811,0.9797,0.9797,0.9794,0.9799,0.9827,0.984,0.9817,0.9816,0.9821,0.9852,0.9863,0.9866,0.9911,0.9877,0.9879,0.988,0.9881,0.9984,0.9985,0,0,0,0,0,0,0.974,0.9747,0.981,0.9812,0.9768,0.9797,0.9802,0.9817,0.9839,0.9842,0.9822,0.9821,0.9859,0.9863,0.9868,0.9912,0.9879,0.9882,0.9883,0.9982,0.9984,0.9985,0,0,0,0,0,0,0.9738,0.9746,0.9808,0.9779,0.9787,0.98,0.9817,0.9819,0.9829,0.9843,0.9845,0.9831,0.9858,0.9864,0.9896,0.9913,0.9883,0.9885,0.9981,0.9983,0.9984,1.0001,0,0,0,0,0,0,0.9736,0.9745,0.9761,0.978,0.9789,0.9837,0.9818,0.982,0.9834,0.9832,0.9852,0.9854,0.9858,0.9892,0.9899,0.9916,0.9887,0.998,0.9982,0.9984,0.9999,1.0003,1.0007,0,0,0,0,0,0.9733,0.9764,0.9761,0.9769,0.9808,0.9838,0.9843,0.9847,0.9835,0.985,0.9859,0.9854,0.991,0.9896,0.9903,0.9921,0.9979,0.9981,0.9984,0.9997,1.0002,1.0007,0,0,0,0,0,0,0.9747,0.9767,0.9764,0.9803,0.9818,0.9836,0.9855,0.9852,0.9872,0.9869,0.9873,0.9878,0.991,0.9919,0.9902,0.9958,0.9943,0.9947,0.9951,0.9955,0.9959,0.9956,0.9889,0,0,0,0,0,0.9754,0.9777,0.9793,0.9826,0.9834,0.9843,0.9856,0.9858,0.9874,0.9881,0.9892,0.9908,0.9929,0.9943,0.9963,1.0001,1.0003,1.0016,1.002,1.0023,1.0026,1.0044,1.0049,0.9994,0.9994,0.9993,0,0,0.977,0.9784,0.9798,0.9829,0.9841,0.9864,0.9849,0.9874,0.989,0.9885,0.9915,0.9924,0.9942,0.9976,0.9992,0.9984,1.0042,1.0026,1.0029,1.003,1.0047,1.0053,1.0057,0.9995,0.9995,0.9995,0,0,0.981,0.9824,0.9851,0.9863,0.9882,0.9888,0.9894,0.9912,0.9918,0.9949,0.9944,0.9963,1.0,1.0012,1.0023,1.0065,1.006,1.0072,1.0091,1.0108,1.0113,1.0117,1.013,1.0135,1.0075,1.0075,1.0075,0,0.9827,0.9861,0.9865,0.989,0.9902,0.9898,0.9925,0.9937,0.9961,0.9969,0.9961,1.0006,1.0018,1.0053,1.0063,1.0073,1.0079,1.0069,1.0112,1.0116,1.012,1.0132,1.0137,1.0076,1.0076,1.0076,1.0076,0,0.988,0.9904,0.9924,0.9947,0.9962,0.9987,0.9994,1.0008,1.0008,1.0014,1.0044,1.0058,1.008,1.0089,1.0089,1.0124,1.0119,1.0111,1.0096,1.0126,1.0138,1.0143,1.0078,1.0077,1.0077,1.0077,0,0,0.9931,0.9954,0.9961,0.9971,0.999,1.0008,1.0033,1.0054,1.0065,1.0082,1.0102,1.0132,1.0124,1.0137,1.0138,1.0154,1.0183,1.0144,1.0145,1.0149,1.022,1.0224,1.023,1.0181,1.0182,1.0182,1.0218,0,0.9971,1.0015,1.0018,1.0056,1.0077,1.0072,1.0093,1.0107,1.0113,1.013,1.0137,1.0157,1.0147,1.0154,1.0169,1.0177,1.0197,1.0174,1.0197,1.0198,1.0192,1.0237,1.0242,1.0275,1.0223,1.0224,1.0224,0,1.0024,1.0041,1.0082,1.0097,1.0105,1.0124,1.0143,1.016,1.0175,1.0178,1.0191,1.0189,1.0213,1.0197,1.0229,1.0213,1.0222,1.0227,1.0229,1.023,1.0212,1.0237,1.0286,1.029,1.0232,1.0231,1.0231,0,1.0054,1.0088,1.0116,1.0124,1.0143,1.0156,1.0164,1.0177,1.0189,1.0205,1.0212,1.0231,1.0241,1.0255,1.0258,1.0247,1.0289,1.0274,1.0291,1.029,1.0299,1.0298,1.0348,1.0308,1.0307,1.0307,1.0307,0,1.0098,1.0123,1.0129,1.0147,1.0173,1.0176,1.0202,1.0209,1.0221,1.0238,1.0236,1.0252,1.0256,1.0272,1.0275,1.0299,1.0304,1.0306,1.0306,1.0306,1.0305,1.0311,1.0309,1.0309,1.0308,1.0308,1.0308,0,1.0136,1.0142,1.0172,1.0186,1.019,1.0209,1.022,1.0236,1.0241,1.0263,1.0268,1.0276,1.0295,1.03,1.0323,1.0325,1.0353,1.0352,1.0348,1.0348,1.0363,1.0361,1.0418,1.0424,1.0381,1.0381,1.0382,0,1.0163,1.0182,1.0197,1.0209,1.0217,1.0236,1.0247,1.025,1.0262,1.0279,1.0292,1.0311,1.0326,1.0357,1.0364,1.0381,1.0379,1.0398,1.0382,1.038,1.0377,1.0376,1.0377,1.0401,1.0401,1.0401,1.0402,0,1.021,1.0211,1.0228,1.0246,1.0259,1.0273,1.0287,1.0296,1.03,1.0314,1.0333,1.0345,1.0368,1.0386,1.0403,1.041,1.0406,1.0407,1.0411,1.041,1.0406,1.0407,1.0355,1.0405,1.0405,1.0405,1.0404,1.0404,1.0242,1.0257,1.027,1.0288,1.0298,1.031,1.0325,1.0331,1.0348,1.0366,1.0367,1.0388,1.04,1.0422,1.043,1.0445,1.0439,1.0446,1.0448,1.0449,1.045,1.0405,1.0448,1.0448,1.0448,1.0448,1.0448,0,1.0286,1.0294,1.0311,1.0329,1.0343,1.0338,1.0352,1.0364,1.0382,1.0394,1.0408,1.0429,1.0446,1.0454,1.0471,1.0482,1.048,1.0486,1.0484,1.0485,1.0455,1.0448,1.0486,1.0486,1.0486,1.0486,1.0486,1.0486,1.0311,1.0336,1.0339,1.0368,1.0375,1.0395,1.0403,1.0414,1.0423,1.0446,1.046,1.0466,1.0475,1.0492,1.0507,1.0509,1.0514,1.052,1.0521,1.0492,1.0488,1.0484,1.0478,1.0522,1.0522,1.055,1.055,1.0551]},{"header":{"parameterUnit":"m.s-1","parameterCategory":1,"la1":30.2991,"la2":30.254,"lo1":-89.0895,"lo2":-89.0444,"dy":0.0017,"dx":0.0017,"nx":28,"ny":28,"refTime":"2025-03-21T21:00:00:Z","depth":0,"parameterNumber":3,"parameterNumberName":"V-component_of_WINDS"},"data":[0,0,0,0,0,0,0,0,0,0,0,0,0,0,0,0,0,0,0,0,0,0,0,0,0,0,0,0,0,0,0,0,0,0,0,0,0,0,0,0,0,0,0,0,0,0,0,0,0,0,0,0,0,0,0,0,0,0,4.997,4.9971,0,5.0037,5.0038,5.0039,4.9974,4.9972,4.9969,4.9967,5.0032,5.0036,5.004,0,0,0,0,0,0,0,0,0,0,0,0,0,4.978,4.9784,4.997,4.9971,4.9972,5.0037,5.0038,5.0039,4.9975,4.9972,4.9969,4.9966,5.0031,5.0035,5.004,0,0,0,0,0,0,0,0,0,0,0,0,0,4.9856,4.9785,4.997,4.9948,4.9946,5.0037,5.0038,5.0039,4.9976,4.9972,4.9968,4.9964,5.0029,5.0035,5.0041,5.0156,0,0,5.006,5.0063,0,0,0,0,0,0,0,0,4.9852,4.9863,4.995,4.9949,4.9948,4.9994,4.9995,5.0078,4.9976,4.9964,4.9967,4.9962,5.0022,5.0028,5.0049,5.0159,5.0161,5.006,5.0064,5.0067,5.0069,0,0,0,0,0,0,0,4.9847,4.986,4.9996,4.9951,4.995,4.9932,4.9939,5.001,5.0014,4.9965,4.9961,4.997,5.0021,5.0044,5.005,5.0162,5.006,5.0066,5.007,5.0072,5.0365,5.0368,0,0,0,0,0,0,4.9844,4.9856,4.9994,4.9998,4.989,4.9939,4.9946,4.9983,5.0013,5.0014,4.9973,4.9966,5.0035,5.0043,5.0052,5.0186,5.0067,5.0073,5.0076,5.0361,5.0365,5.037,0,0,0,0,0,0,4.9841,4.9858,4.9991,4.9926,4.9942,4.9946,4.9988,4.9986,5.0009,5.0019,5.0018,4.9996,5.0032,5.0044,5.013,5.0187,5.0075,5.0081,5.0356,5.0362,5.0368,5.0455,0,0,0,0,0,0,4.9836,4.9857,4.9902,4.9928,4.9946,5.007,4.9991,4.999,5.002,5.0012,5.004,5.0041,5.003,5.0121,5.0136,5.0194,5.0086,5.0351,5.0359,5.0366,5.0447,5.0463,5.0477,0,0,0,0,0,4.9829,4.9924,4.9905,4.9922,5.0003,5.0073,5.0083,5.007,5.0025,5.0069,5.0075,5.004,5.0179,5.013,5.0147,5.0207,5.0347,5.0356,5.0365,5.044,5.046,5.0477,0,0,0,0,0,0,4.9904,4.9927,4.9906,5.0012,5.0041,5.0062,5.0118,5.0092,5.0134,5.0124,5.0104,5.0111,5.0202,5.0213,5.0159,5.0317,5.0255,5.0268,5.0307,5.0326,5.0341,5.0335,5.0091,0,0,0,0,0,4.9933,4.9991,5.0007,5.0099,5.0115,5.0114,5.0144,5.0131,5.016,5.0172,5.0184,5.0212,5.0261,5.0294,5.0341,5.0449,5.0452,5.0498,5.0513,5.0525,5.0536,5.059,5.061,5.04,5.04,5.04,0,0,4.9994,5.0013,5.0051,5.0114,5.0136,5.0193,5.0125,5.0189,5.0231,5.0181,5.0263,5.0273,5.0302,5.0399,5.0442,5.0411,5.0595,5.0537,5.0547,5.0551,5.0602,5.0622,5.0639,5.0406,5.0405,5.0404,0,0,5.0133,5.0155,5.0232,5.0255,5.0287,5.0286,5.0304,5.0329,5.0333,5.0415,5.0378,5.0426,5.0513,5.0534,5.0557,5.0701,5.0669,5.0717,5.0795,5.0848,5.0865,5.0879,5.0928,5.0946,5.0728,5.0728,5.0728,0,5.0204,5.029,5.0275,5.0342,5.0369,5.0327,5.0404,5.0426,5.0471,5.049,5.0455,5.0561,5.0578,5.0677,5.0712,5.0733,5.0751,5.0713,5.0864,5.0878,5.0892,5.0937,5.0956,5.0733,5.0733,5.0732,5.0731,0,5.0374,5.0434,5.0493,5.0538,5.0572,5.0643,5.0636,5.0673,5.0656,5.0657,5.0739,5.0758,5.0805,5.0828,5.0813,5.0925,5.0904,5.0867,5.0804,5.0917,5.096,5.0978,5.0741,5.0739,5.0737,5.0736,0,0,5.0563,5.0597,5.0619,5.0637,5.0669,5.0714,5.0782,5.0829,5.0859,5.0892,5.0946,5.1019,5.0984,5.1009,5.0996,5.1043,5.1151,5.0999,5.0999,5.1024,5.1272,5.1298,5.1319,5.1131,5.1135,5.1137,5.1268,0,5.0701,5.082,5.0807,5.0919,5.0972,5.0932,5.099,5.1015,5.1017,5.1061,5.1063,5.1114,5.1066,5.108,5.1125,5.1129,5.12,5.1119,5.1179,5.1181,5.1171,5.1341,5.137,5.1493,5.1285,5.1288,5.129,0,5.0878,5.0916,5.1034,5.1054,5.1076,5.113,5.117,5.1214,5.1239,5.1237,5.1264,5.1242,5.1306,5.1243,5.1331,5.1276,5.1299,5.1304,5.1309,5.1312,5.1241,5.1347,5.1532,5.155,5.1317,5.1315,5.1313,0,5.1001,5.1082,5.1162,5.1179,5.1206,5.1243,5.1256,5.1278,5.1306,5.1341,5.1358,5.14,5.1423,5.1455,5.1442,5.1398,5.1531,5.1468,5.1529,5.153,5.1558,5.1556,5.1747,5.1577,5.1577,5.1576,5.1576,0,5.1155,5.1228,5.1217,5.1266,5.1345,5.1328,5.1406,5.1413,5.1433,5.148,5.1448,5.1493,5.1476,5.1519,5.151,5.1582,5.1593,5.1592,5.1588,5.1594,5.1593,5.1607,5.1597,5.1581,5.158,5.1579,5.1578,0,5.1305,5.1301,5.1385,5.1402,5.1408,5.1466,5.148,5.1524,5.1523,5.1584,5.1597,5.1596,5.1645,5.1636,5.1691,5.1684,5.1774,5.1761,5.1765,5.1761,5.1822,5.1816,5.2027,5.2052,5.1868,5.187,5.1872,0,5.1403,5.1458,5.1481,5.1511,5.1526,5.1575,5.1603,5.1587,5.1617,5.1649,5.1689,5.1735,5.1771,5.1851,5.1854,5.1894,5.188,5.1952,5.1886,5.1889,5.1878,5.1874,5.1878,5.1964,5.1966,5.1968,5.1969,0,5.1576,5.157,5.1613,5.1654,5.1688,5.1719,5.1748,5.1773,5.176,5.1795,5.1845,5.1873,5.1928,5.1973,5.201,5.2021,5.1992,5.199,5.2006,5.2011,5.201,5.2008,5.1798,5.1985,5.1983,5.1982,5.1981,5.1981,5.1701,5.1746,5.1769,5.1816,5.1835,5.1861,5.1903,5.1907,5.1949,5.1992,5.198,5.2036,5.2057,5.2104,5.2119,5.216,5.2134,5.2158,5.2163,5.2169,5.2175,5.2005,5.2168,5.2167,5.2167,5.2166,5.2166,0,5.1869,5.1881,5.1925,5.1965,5.2001,5.1972,5.2,5.2032,5.2082,5.2104,5.214,5.2195,5.2238,5.2244,5.2284,5.2316,5.2303,5.2327,5.2323,5.2325,5.2198,5.2179,5.2336,5.2336,5.2336,5.2336,5.2336,5.2336,5.1961,5.2035,5.2032,5.2114,5.2125,5.218,5.2198,5.2221,5.2238,5.2302,5.2338,5.2341,5.2356,5.2396,5.2433,5.2433,5.2448,5.2476,5.2471,5.2352,5.2335,5.2318,5.23,5.248,5.2481,5.2595,5.2596,5.2597]}]]